This demonstration page uses our WeatherBlox Daily Observations layout. Learn more.

38.88101, -77.10428

Hourly Observations for October 12, 2017

Temp ( °F °C ) Dew Point ( °F °C ) Humidity (%) Winds ( mph kmh ) Pressure ( in mb ) Visibility ( mi km ) Precip ( " mm )
12:16 am 00:16 Cloudy with Light Rain 68 20 66 18.9 93 93 WNW 15 24 30.09 1019 10 16.0934 0 0.0254
12:27 am 00:27 Cloudy with Rain 67 19.4 66 18.9 97 97 VRB 3 6 30.06 1018 4 6.43736 0.03 0.762
12:52 am 00:52 Cloudy with Light Rain 67 19.4 66 18.9 97 97 N 9 15 30.07 1018 7 11.26538 0.04 1.016
1:10 am 01:10 Cloudy with Light Rain 67 19.4 67 19.4 100 100 N 12 19 30.09 1019 7 11.26538 0.02 0.508
1:36 am 01:36 Cloudy with Light Rain 67 19.4 67 19.4 100 100 ENE 10 17 30.06 1018 6 9.65604 0.05 1.27
1:52 am 01:52 Cloudy with Light Rain 67 19.4 67 19.4 100 100 NE 10 17 30.07 1018 10 16.0934 0.05 1.27
2:31 am 02:31 Cloudy 68 20 67 19.4 96 96 NE 12 19 30.06 1018 10 16.0934 0 0.0254
2:52 am 02:52 Cloudy 67 19.4 66 18.9 97 97 NE 9 15 30.08 1019 10 16.0934 0 0.0254
3:52 am 03:52 Cloudy with Light Rain 67 19.4 64 17.8 91 91 ENE 15 24 30.08 1019 10 16.0934 0 0
4:52 am 04:52 Cloudy 67 19.4 64 17.8 91 91 NE 16 26 30.1 1019 10 16.0934 0 0
5:52 am 05:52 Cloudy 67 19.4 62 16.7 84 84 ENE 20 31 30.11 1020 10 16.0934 0 0
6:52 am 06:52 Cloudy 66 18.9 61 16.1 84 84 ENE 16 26 30.14 1021 10 16.0934 0 0
7:52 am 07:52 Cloudy 66 18.9 61 16.1 84 84 ENE 21 33 30.17 1022 10 16.0934 0 0
8:52 am 08:52 Cloudy 66 18.9 60 15.6 81 81 E 15 24 30.19 1023 10 16.0934 0 0
9:52 am 09:52 Cloudy 66 18.9 59 15 78 78 E 16 26 30.21 1023 10 16.0934 0 0
10:52 am 10:52 Cloudy 65 18.3 58 14.4 78 78 E 15 24 30.23 1024 10 16.0934 0 0
11:52 am 11:52 Cloudy with Light Drizzle 64 17.8 58 14.4 81 81 E 15 24 30.25 1025 4 6.43736 0 0
12:07 pm 12:07 Cloudy with Light Drizzle 64 17.8 58 14.4 81 81 E 15 24 30.27 1025 2.5 4.02335 0 0
12:18 pm 12:18 Cloudy with Light Drizzle 64 17.8 58 14.4 81 81 E 15 24 30.27 1025 2.5 4.02335 0 0
12:46 pm 12:46 Cloudy with Light Drizzle 64 18 57 14 78 78 ENE 16 26 30.27 1025 5 8.0467 0 0
12:52 pm 12:52 Cloudy with Light Drizzle 64 17.8 58 14.4 81 81 ENE 16 26 30.25 1025 5 8.0467 0 0
1:32 pm 13:32 Cloudy 64 17.8 58 14.4 81 81 E 15 24 30.24 1024 10 16.0934 0 0
1:52 pm 13:52 Cloudy 64 17.8 58 14.4 81 81 E 16 26 30.24 1024 10 16.0934 0 0
2:52 pm 14:52 Cloudy 64 17.8 58 14.4 81 81 ENE 13 20 30.25 1024 10 16.0934 0 0
3:52 pm 15:52 Cloudy 64 17.8 55 12.8 73 73 ENE 15 24 30.26 1025 10 16.0934 0 0
4:52 pm 16:52 Cloudy with Light Drizzle 63 17.2 55 12.8 76 76 E 12 19 30.26 1025 10 16.0934 0 0
5:52 pm 17:52 Cloudy with Light Drizzle 62 16.7 56 13.3 80 80 E 14 22 30.27 1025 9 14.48406 0 0
6:52 pm 18:52 Cloudy with Light Drizzle 62 16.7 55 12.8 78 78 ENE 12 19 30.29 1026 9 14.48406 0 0
7:52 pm 19:52 Cloudy with Light Drizzle 62 16.7 54 12.2 75 75 E 13 20 30.32 1027 9 14.48406 0 0
8:52 pm 20:52 Cloudy 62 16.7 52 11.1 70 70 E 10 17 30.32 1027 10 16.0934 0 0
9:52 pm 21:52 Cloudy 62 16.7 51 10.6 67 67 ENE 10 17 30.33 1027 10 16.0934 0 0
10:52 pm 22:52 Cloudy 61 16.1 52 11.1 72 72 E 9 15 30.33 1027 10 16.0934 0 0
11:52 pm 23:52 Mostly Cloudy 62 16.7 51 10.6 67 67 NE 12 19 30.33 1027 10 16.0934 0 0

Powered by AerisWeather